Volver al catálogo

STARLINK-35308

ActivoComunicacionesVLEO
NORAD 65848·PAYLOAD·🇺🇸 United States

Lanzado Sep 29, 2025 desde Vandenberg Space Force Base

Loading…

Próximos Pases (próximas 24 horas)

TLE

ActualizadoSource: CelesTrak SupGP

Época: Sep 14, 2026, 20:48 UTC

1 65848C 25221AB  26257.86715278  .00026190  00000+0  77391-3 0  2573
2 65848  53.1579 285.9092 0001116  87.9630 133.9841 15.34372630    14

Sigue STARLINK-35308 en tiempo real con AllMySat

Download on the App Store